Location: Cambridge (historical)
(38.6883°N, 119.0140°W)
Time: 17:24:04
(UTC+00:00)

Cosmos 1484 Rocket - Pass Details

Date: 29 October 2020
Orbit: 505 x 560 km, 97.4° (Epoch: 23 November)

Event Time Altitude Azimuth Distance (km) Brightness Sun altitude
Rises 13:15:32 0° 358° (N) 2,681 6.2 -13.2°
Reaches altitude 10° 13:17:55 10° 345° (NNW) 1,776 5.2 -12.7°
Maximum altitude 13:21:04 25° 290° (WNW) 1,083 3.7 -12.1°
Drops below altitude 10° 13:24:10 10° 234° (SW) 1,740 5.0 -11.5°
Sets 13:26:29 0° 220° (SW) 2,613 6.0 -11.1°
